全球星 M071星 (GLOBALSTAR M071)

导读

GLOBALSTAR M071是全球星(Globalstar)星座中的通信卫星,于2007年5月29日发射,归属GLOB(全球星组织)运营。全球星系统是美国开发的低轨卫星移动通信系统,旨在为偏远地区、海洋等地面网络覆盖盲区提供语音和数据通信服务。该卫星属于全球星第一代组网卫星,延续了系统标准化设计,运行在中低地球轨道,支撑全球范围内的移动卫星通信服务,满足户外探险、海上作业等场景的应急与基础通信需求。

基本信息
目录编号:
31576
目录名称:
GLOBALSTAR M071
国际标识:
2007-020F
轨道中心:
EARTH
卫星名称:
全球星 M071星
卫星全名:
全球星 M071星 (GLOBALSTAR M071)
卫星状态:
在轨 (已飞行6999 天)
发射日期:
2007-05-29 UTC
国别 :
(GLOB)
星等 :
--
轨道信息
数据来源 国际轨道数据 AOE轨道数据
星历时间 2026-07-27T14:57:29+0800
14小时前
查看轨道信息
2026-07-26T09:00:00+0800
1天前
查看轨道信息
半长轴 7978.216km 7978.213km
偏心率 0.000065 0.000077
轨道倾角 52.004° 52.002°
近地点辐角 222.738° 213.908°
升交点赤经 175.654° 179.151°
平近点角 278.208° 209.964°
近地点 1599.56km 1599.461km
远地点 1600.598km 1600.691km
周期 118.200分钟 118.200分钟
每日圈数 12.182715 12.182722
详细信息
固有亮度:
5
最大亮度:
7.9
平衡模式:
三轴稳定
覆盖范围:
全球
运营商:
全球星公司
运营商所在国:
美国
使用方式:
暂无
卫星简介
全球星星座由48颗卫星加8颗备份星组成。这些卫星分布在8个倾角为52度的圆形轨道平面上,每个轨道平面6颗卫星,另有1 颗备用星。轨道高度约为1414km,传输时延和处理时延小于300ms,整个系统的覆盖区为南北纬70度以内的地区。该卫星已退役。
2D轨道图
3D轨道图
轨道高度分析图
轨道倾角分析图
轨道综合分析图
查看轨道综合分析图